Time,TemperatureF,DewpointF,PressureIn,WindDirection,WindDirectionDegrees,WindSpeedMPH,WindSpeedGustMPH,Humidity,HourlyPrecipIn,Conditions,Clouds,dailyrainin,SoftwareType,DateUTC
2013-08-27 16:26:00,82.4,60.7,29.78,North,11,1.0,3.0,48,0.00,,,0.00,Wunderground v.1.15,2013-08-27 23:26:00,
2013-08-27 16:32:00,81.6,61.2,29.78,NNW,338,2.0,3.0,50,0.00,,,0.00,Wunderground v.1.15,2013-08-27 23:32:00,
2013-08-27 16:38:00,81.1,61.3,29.78,NW,321,2.0,4.0,51,0.00,,,0.00,Wunderground v.1.15,2013-08-27 23:38:00,
2013-08-27 16:40:00,81.3,61.4,29.78,NNE,13,2.0,4.0,51,0.00,,,0.00,Wunderground v.1.15,2013-08-27 23:40:00,
2013-08-27 16:42:00,81.6,61.2,29.78,North,5,2.0,4.0,50,0.00,,,0.00,Wunderground v.1.15,2013-08-27 23:42:00,
2013-08-27 16:48:00,82.0,61.0,29.78,North,5,2.0,2.0,49,0.00,,,0.00,Wunderground v.1.15,2013-08-27 23:48:00,
2013-08-27 16:50:00,82.1,61.0,29.78,NNE,15,2.0,2.0,49,0.00,,,0.00,Wunderground v.1.15,2013-08-27 23:50:00,
2013-08-27 16:54:00,82.3,61.2,29.78,NNE,26,1.0,5.0,49,0.00,,,0.00,Wunderground v.1.15,2013-08-27 23:54:00,
2013-08-27 16:56:00,82.4,61.3,29.78,NNE,13,1.0,5.0,49,0.00,,,0.00,Wunderground v.1.15,2013-08-27 23:56:00,
2013-08-27 16:58:00,82.4,61.3,29.78,NNW,346,2.0,5.0,49,0.00,,,0.00,Wunderground v.1.15,2013-08-27 23:58:00,
2013-08-27 17:02:00,82.3,60.6,29.78,NNW,340,2.0,2.0,48,0.00,,,0.00,Wunderground v.1.15,2013-08-28 00:02:00,
2013-08-27 17:04:00,82.1,61.0,29.78,NNW,345,2.0,2.0,49,0.00,,,0.00,Wunderground v.1.15,2013-08-28 00:04:00,
2013-08-27 17:06:00,81.9,60.9,29.78,NNW,344,1.0,2.0,49,0.00,,,0.00,Wunderground v.1.15,2013-08-28 00:06:00,
2013-08-27 17:08:00,81.8,60.8,29.78,NNW,344,1.0,2.0,49,0.00,,,0.00,Wunderground v.1.15,2013-08-28 00:08:00,
2013-08-27 17:10:00,81.7,61.2,29.78,NNW,344,1.0,1.0,50,0.00,,,0.00,Wunderground v.1.15,2013-08-28 00:10:00,
2013-08-27 17:12:00,81.7,61.2,29.78,NNW,344,0.0,1.0,50,0.00,,,0.00,Wunderground v.1.15,2013-08-28 00:12:00,
2013-08-27 17:14:00,81.6,61.2,29.78,NNW,344,0.0,1.0,50,0.00,,,0.00,Wunderground v.1.15,2013-08-28 00:14:00,
2013-08-27 17:20:00,81.2,61.4,29.78,NNW,344,1.0,1.0,51,0.00,,,0.00,Wunderground v.1.15,2013-08-28 00:20:00,
2013-08-27 17:26:00,80.8,62.1,29.78,North,5,1.0,2.0,53,0.00,,,0.00,Wunderground v.1.15,2013-08-28 00:26:00,
2013-08-27 17:29:00,80.4,61.7,29.78,NNE,15,1.0,4.0,53,0.00,,,0.00,Wunderground v.1.15,2013-08-28 00:29:00,
2013-08-27 17:30:00,80.3,61.6,29.78,NNE,15,1.0,3.0,53,0.00,,,0.00,Wunderground v.1.15,2013-08-28 00:30:00,
2013-08-27 17:32:00,80.1,62.0,29.78,NNE,15,2.0,3.0,54,0.00,,,0.00,Wunderground v.1.15,2013-08-28 00:32:00,
2013-08-27 17:34:00,79.9,61.8,29.78,NNE,15,2.0,3.0,54,0.00,,,0.00,Wunderground v.1.15,2013-08-28 00:34:00,
2013-08-27 17:36:00,79.8,62.2,29.78,NW,310,2.0,3.0,55,0.00,,,0.00,Wunderground v.1.15,2013-08-28 00:36:00,
2013-08-27 17:40:00,79.5,62.9,29.78,NNW,340,1.0,1.0,57,0.00,,,0.00,Wunderground v.1.15,2013-08-28 00:40:00,
2013-08-27 17:42:00,79.1,63.1,29.78,NW,315,2.0,4.0,58,0.00,,,0.00,Wunderground v.1.15,2013-08-28 00:42:00,
2013-08-27 17:46:00,78.5,63.5,29.78,NNW,338,2.0,4.0,60,0.00,,,0.00,Wunderground v.1.15,2013-08-28 00:46:00,
2013-08-27 17:50:00,77.6,63.5,29.79,NNW,340,3.0,3.0,62,0.00,,,0.00,Wunderground v.1.15,2013-08-28 00:50:00,
2013-08-27 17:52:00,77.3,63.7,29.79,SW,218,3.0,3.0,63,0.00,,,0.00,Wunderground v.1.15,2013-08-28 00:52:00,
2013-08-27 17:54:00,77.0,63.4,29.79,North,355,3.0,3.0,63,0.00,,,0.00,Wunderground v.1.15,2013-08-28 00:54:00,
2013-08-27 17:56:00,76.7,63.6,29.79,NW,319,3.0,3.0,64,0.00,,,0.00,Wunderground v.1.15,2013-08-28 00:56:00,
2013-08-27 18:00:00,76.2,63.1,29.79,NNW,335,2.0,2.0,64,0.00,,,0.00,Wunderground v.1.15,2013-08-28 01:00:00,
2013-08-27 18:02:00,76.0,63.4,29.79,West,259,2.0,2.0,65,0.00,,,0.00,Wunderground v.1.15,2013-08-28 01:02:00,
2013-08-27 18:04:00,75.9,63.3,29.79,SW,236,2.0,2.0,65,0.00,,,0.00,Wunderground v.1.15,2013-08-28 01:04:00,
2013-08-27 18:06:00,75.7,63.1,29.79,NW,315,2.0,2.0,65,0.00,,,0.00,Wunderground v.1.15,2013-08-28 01:06:00,
2013-08-27 18:10:00,75.3,62.3,29.78,NW,323,2.0,3.0,64,0.00,,,0.00,Wunderground v.1.15,2013-08-28 01:10:00,
2013-08-27 18:12:00,75.2,62.6,29.78,NNE,30,2.0,3.0,65,0.00,,,0.00,Wunderground v.1.15,2013-08-28 01:12:00,
2013-08-27 18:16:00,74.9,62.3,29.78,NNW,344,2.0,3.0,65,0.00,,,0.00,Wunderground v.1.15,2013-08-28 01:16:00,
2013-08-27 18:18:00,74.9,62.3,29.78,NNW,340,2.0,3.0,65,0.00,,,0.00,Wunderground v.1.15,2013-08-28 01:18:00,
2013-08-27 18:20:00,74.8,62.2,29.78,NNW,333,2.0,4.0,65,0.00,,,0.00,Wunderground v.1.15,2013-08-28 01:20:00,
2013-08-27 18:22:00,74.7,62.1,29.78,North,5,2.0,4.0,65,0.00,,,0.00,Wunderground v.1.15,2013-08-28 01:22:00,
2013-08-27 18:26:00,74.5,62.4,29.78,NW,316,2.0,4.0,66,0.00,,,0.00,Wunderground v.1.15,2013-08-28 01:26:00,
2013-08-27 18:28:00,74.4,62.3,29.78,WNW,296,1.0,4.0,66,0.00,,,0.00,Wunderground v.1.15,2013-08-28 01:28:00,
2013-08-27 18:30:00,74.4,62.3,29.78,WSW,258,1.0,1.0,66,0.00,,,0.00,Wunderground v.1.15,2013-08-28 01:30:00,
2013-08-27 18:34:00,74.3,62.6,29.78,North,5,1.0,1.0,67,0.00,,,0.00,Wunderground v.1.15,2013-08-28 01:34:00,
2013-08-27 18:36:00,74.3,62.2,29.78,North,9,0.0,1.0,66,0.00,,,0.00,Wunderground v.1.15,2013-08-28 01:36:00,
2013-08-27 18:40:00,74.2,62.5,29.78,NW,321,1.0,1.0,67,0.00,,,0.00,Wunderground v.1.15,2013-08-28 01:40:00,
2013-08-27 18:42:00,74.1,62.4,29.78,NW,320,1.0,1.0,67,0.00,,,0.00,Wunderground v.1.15,2013-08-28 01:42:00,
2013-08-27 18:44:00,74.0,62.3,29.78,NW,319,1.0,1.0,67,0.00,,,0.00,Wunderground v.1.15,2013-08-28 01:44:00,
2013-08-27 18:46:00,74.0,61.9,29.78,SW,227,1.0,1.0,66,0.00,,,0.00,Wunderground v.1.15,2013-08-28 01:46:00,
2013-08-27 18:50:00,73.7,61.6,29.78,WSW,252,1.0,1.0,66,0.00,,,0.00,Wunderground v.1.15,2013-08-28 01:50:00,
2013-08-27 18:52:00,73.6,62.0,29.78,NNE,26,1.0,1.0,67,0.00,,,0.00,Wunderground v.1.15,2013-08-28 01:52:00,
2013-08-27 18:54:00,73.4,61.3,29.78,WSW,248,2.0,2.0,66,0.00,,,0.00,Wunderground v.1.15,2013-08-28 01:54:00,
2013-08-27 18:56:00,73.3,61.7,29.78,WNW,286,2.0,2.0,67,0.00,,,0.00,Wunderground v.1.15,2013-08-28 01:56:00,
2013-08-27 19:00:00,73.0,61.0,29.78,North,9,1.0,1.0,66,0.00,,,0.00,Wunderground v.1.15,2013-08-28 02:00:00,
2013-08-27 19:02:00,72.9,60.9,29.79,NW,312,1.0,1.0,66,0.00,,,0.00,Wunderground v.1.15,2013-08-28 02:02:00,
2013-08-27 19:04:00,72.8,60.8,29.79,SW,234,1.0,1.0,66,0.00,,,0.00,Wunderground v.1.15,2013-08-28 02:04:00,
2013-08-27 19:08:00,72.5,60.5,29.79,NNW,329,1.0,1.0,66,0.00,,,0.00,Wunderground v.1.15,2013-08-28 02:08:00,
2013-08-27 19:10:00,72.5,60.5,29.79,SW,231,1.0,5.0,66,0.00,,,0.00,Wunderground v.1.15,2013-08-28 02:10:00,
2013-08-27 19:12:00,72.3,59.9,29.79,North,355,2.0,5.0,65,0.00,,,0.00,Wunderground v.1.15,2013-08-28 02:12:00,
2013-08-27 19:14:00,72.2,60.2,29.79,North,355,1.0,5.0,66,0.00,,,0.00,Wunderground v.1.15,2013-08-28 02:14:00,
2013-08-27 19:20:00,71.9,59.9,29.79,North,350,1.0,1.0,66,0.00,,,0.00,Wunderground v.1.15,2013-08-28 02:20:00,
2013-08-27 19:22:00,71.9,60.3,29.79,North,349,0.0,1.0,67,0.00,,,0.00,Wunderground v.1.15,2013-08-28 02:22:00,
2013-08-27 19:29:00,71.5,59.5,29.79,NNW,348,0.0,2.0,66,0.00,,,0.00,Wunderground v.1.15,2013-08-28 02:29:00,
2013-08-27 19:32:00,71.3,59.4,29.79,WNW,302,0.0,2.0,66,0.00,,,0.00,Wunderground v.1.15,2013-08-28 02:32:00,
2013-08-27 19:34:00,71.3,59.4,29.79,WNW,302,0.0,2.0,66,0.00,,,0.00,Wunderground v.1.15,2013-08-28 02:34:00,
2013-08-27 19:36:00,71.2,59.7,29.79,WNW,298,0.0,2.0,67,0.00,,,0.00,Wunderground v.1.15,2013-08-28 02:36:00,
2013-08-27 19:39:00,71.0,59.1,29.80,WNW,292,0.0,2.0,66,0.00,,,0.00,Wunderground v.1.15,2013-08-28 02:39:00,
2013-08-27 19:42:00,70.9,59.4,29.80,West,259,0.0,0.0,67,0.00,,,0.00,Wunderground v.1.15,2013-08-28 02:42:00,
2013-08-27 19:46:00,70.7,59.2,29.80,West,259,0.0,0.0,67,0.00,,,0.00,Wunderground v.1.15,2013-08-28 02:46:00,
2013-08-27 19:48:00,70.6,59.1,29.80,WSW,248,0.0,2.0,67,0.00,,,0.00,Wunderground v.1.15,2013-08-28 02:48:00,
2013-08-27 19:54:00,70.4,58.9,29.80,WSW,248,0.0,0.0,67,0.00,,,0.00,Wunderground v.1.15,2013-08-28 02:54:00,
2013-08-27 19:56:00,70.3,59.2,29.80,WSW,244,0.0,1.0,68,0.00,,,0.00,Wunderground v.1.15,2013-08-28 02:56:00,
2013-08-27 20:00:00,70.1,59.0,29.80,WSW,258,1.0,1.0,68,0.00,,,0.00,Wunderground v.1.15,2013-08-28 03:00:00,
2013-08-27 20:04:00,70.0,59.0,29.80,West,263,1.0,2.0,68,0.00,,,0.00,Wunderground v.1.15,2013-08-28 03:04:00,
2013-08-27 20:06:00,69.9,58.9,29.80,West,263,1.0,2.0,68,0.00,,,0.00,Wunderground v.1.15,2013-08-28 03:06:00,
2013-08-27 20:08:00,69.8,58.8,29.80,WSW,249,0.0,2.0,68,0.00,,,0.00,Wunderground v.1.15,2013-08-28 03:08:00,
2013-08-27 20:10:00,69.7,58.7,29.81,WSW,240,0.0,0.0,68,0.00,,,0.00,Wunderground v.1.15,2013-08-28 03:10:00,
2013-08-27 20:16:00,69.5,58.9,29.80,WSW,240,0.0,0.0,69,0.00,,,0.00,Wunderground v.1.15,2013-08-28 03:16:00,
2013-08-27 20:18:00,69.4,58.8,29.80,WSW,250,1.0,1.0,69,0.00,,,0.00,Wunderground v.1.15,2013-08-28 03:18:00,
2013-08-27 20:20:00,69.3,58.7,29.80,WSW,254,0.0,2.0,69,0.00,,,0.00,Wunderground v.1.15,2013-08-28 03:20:00,
2013-08-27 20:24:00,69.1,58.9,29.80,WSW,256,1.0,2.0,70,0.00,,,0.00,Wunderground v.1.15,2013-08-28 03:24:00,
2013-08-27 20:30:00,68.8,58.6,29.81,WSW,250,1.0,1.0,70,0.00,,,0.00,Wunderground v.1.15,2013-08-28 03:30:00,
2013-08-27 20:32:00,68.7,58.5,29.81,West,268,1.0,1.0,70,0.00,,,0.00,Wunderground v.1.15,2013-08-28 03:32:00,
2013-08-27 20:36:00,68.6,58.8,29.81,SW,234,0.0,2.0,71,0.00,,,0.00,Wunderground v.1.15,2013-08-28 03:36:00,
2013-08-27 20:39:00,68.4,58.6,29.81,SSW,204,1.0,2.0,71,0.00,,,0.00,Wunderground v.1.15,2013-08-28 03:39:00,
2013-08-27 20:42:00,68.3,58.9,29.81,SW,233,1.0,1.0,72,0.00,,,0.00,Wunderground v.1.15,2013-08-28 03:42:00,
2013-08-27 20:48:00,68.1,58.7,29.81,WSW,254,1.0,3.0,72,0.00,,,0.00,Wunderground v.1.15,2013-08-28 03:48:00,
2013-08-27 20:50:00,68.0,59.0,29.81,WSW,256,1.0,1.0,73,0.00,,,0.00,Wunderground v.1.15,2013-08-28 03:50:00,
2013-08-27 20:54:00,67.9,58.9,29.81,WSW,242,1.0,1.0,73,0.00,,,0.00,Wunderground v.1.15,2013-08-28 03:54:00,
2013-08-27 20:58:00,67.7,58.7,29.81,WSW,248,1.0,3.0,73,0.00,,,0.00,Wunderground v.1.15,2013-08-28 03:58:00,
2013-08-27 21:00:00,67.7,58.7,29.81,SSW,195,1.0,4.0,73,0.00,,,0.00,Wunderground v.1.15,2013-08-28 04:00:00,
2013-08-27 21:02:00,67.6,58.6,29.81,SSW,211,1.0,4.0,73,0.00,,,0.00,Wunderground v.1.15,2013-08-28 04:02:00,
2013-08-27 21:04:00,67.6,58.6,29.81,South,190,1.0,4.0,73,0.00,,,0.00,Wunderground v.1.15,2013-08-28 04:04:00,
2013-08-27 21:06:00,67.5,58.9,29.81,South,190,1.0,4.0,74,0.00,,,0.00,Wunderground v.1.15,2013-08-28 04:06:00,
2013-08-27 21:10:00,67.5,58.9,29.82,SSW,192,1.0,1.0,74,0.00,,,0.00,Wunderground v.1.15,2013-08-28 04:10:00,
2013-08-27 21:12:00,67.4,58.8,29.82,SSW,192,1.0,1.0,74,0.00,,,0.00,Wunderground v.1.15,2013-08-28 04:12:00,
2013-08-27 21:16:00,67.4,58.8,29.82,SSW,198,1.0,2.0,74,0.00,,,0.00,Wunderground v.1.15,2013-08-28 04:16:00,
2013-08-27 21:20:00,67.2,59.0,29.82,SSW,199,1.0,1.0,75,0.00,,,0.00,Wunderground v.1.15,2013-08-28 04:20:00,
2013-08-27 21:22:00,67.2,59.0,29.82,SSW,199,1.0,2.0,75,0.00,,,0.00,Wunderground v.1.15,2013-08-28 04:22:00,
2013-08-27 21:24:00,67.1,58.9,29.82,SSW,199,1.0,2.0,75,0.00,,,0.00,Wunderground v.1.15,2013-08-28 04:24:00,
2013-08-27 21:26:00,67.1,58.9,29.82,SSW,199,1.0,2.0,75,0.00,,,0.00,Wunderground v.1.15,2013-08-28 04:26:00,
2013-08-27 21:28:00,67.0,58.8,29.82,SSW,199,0.0,2.0,75,0.00,,,0.00,Wunderground v.1.15,2013-08-28 04:28:00,
2013-08-27 21:30:00,66.9,58.7,29.82,SSW,199,0.0,0.0,75,0.00,,,0.00,Wunderground v.1.15,2013-08-28 04:30:00,
2013-08-27 21:32:00,66.8,58.6,29.82,SSW,199,0.0,1.0,75,0.00,,,0.00,Wunderground v.1.15,2013-08-28 04:32:00,
2013-08-27 21:36:00,66.8,58.6,29.82,SSW,199,1.0,1.0,75,0.00,,,0.00,Wunderground v.1.15,2013-08-28 04:36:00,
2013-08-27 21:38:00,66.7,58.5,29.82,SSW,202,1.0,1.0,75,0.00,,,0.00,Wunderground v.1.15,2013-08-28 04:38:00,
2013-08-27 21:40:00,66.7,58.9,29.82,SSW,202,1.0,1.0,76,0.00,,,0.00,Wunderground v.1.15,2013-08-28 04:40:00,
2013-08-27 21:44:00,66.5,58.7,29.82,SSW,203,1.0,3.0,76,0.00,,,0.00,Wunderground v.1.15,2013-08-28 04:44:00,
2013-08-27 21:46:00,66.5,58.7,29.82,SSW,203,1.0,3.0,76,0.00,,,0.00,Wunderground v.1.15,2013-08-28 04:46:00,
2013-08-27 21:50:00,66.4,58.6,29.82,SSW,203,1.0,1.0,76,0.00,,,0.00,Wunderground v.1.15,2013-08-28 04:50:00,
2013-08-27 21:52:00,66.4,58.6,29.82,SSW,203,1.0,3.0,76,0.00,,,0.00,Wunderground v.1.15,2013-08-28 04:52:00,
2013-08-27 21:54:00,66.3,58.5,29.82,SSW,202,2.0,3.0,76,0.00,,,0.00,Wunderground v.1.15,2013-08-28 04:54:00,
2013-08-27 22:00:00,66.2,58.8,29.83,SSW,202,2.0,2.0,77,0.00,,,0.00,Wunderground v.1.15,2013-08-28 05:00:00,
2013-08-27 22:02:00,66.2,58.8,29.83,SSW,202,1.0,2.0,77,0.00,,,0.00,Wunderground v.1.15,2013-08-28 05:02:00,
2013-08-27 22:04:00,66.1,58.7,29.83,SSW,202,1.0,2.0,77,0.00,,,0.00,Wunderground v.1.15,2013-08-28 05:04:00,
2013-08-27 22:06:00,66.1,58.7,29.83,SSW,202,1.0,2.0,77,0.00,,,0.00,Wunderground v.1.15,2013-08-28 05:06:00,
2013-08-27 22:09:00,66.1,58.7,29.83,SSW,210,1.0,2.0,77,0.00,,,0.00,Wunderground v.1.15,2013-08-28 05:09:00,
2013-08-27 22:10:00,66.1,58.7,29.83,SSW,211,1.0,1.0,77,0.00,,,0.00,Wunderground v.1.15,2013-08-28 05:10:00,
2013-08-27 22:12:00,66.1,58.7,29.83,SSW,210,1.0,3.0,77,0.00,,,0.00,Wunderground v.1.15,2013-08-28 05:12:00,
2013-08-27 22:18:00,66.0,58.6,29.83,SSW,210,0.0,3.0,77,0.00,,,0.00,Wunderground v.1.15,2013-08-28 05:18:00,
2013-08-27 22:20:00,65.9,58.5,29.83,SSW,210,0.0,0.0,77,0.00,,,0.00,Wunderground v.1.15,2013-08-28 05:20:00,
2013-08-27 22:26:00,65.9,58.8,29.83,SSW,210,0.0,0.0,78,0.00,,,0.00,Wunderground v.1.15,2013-08-28 05:26:00,
2013-08-27 22:30:00,65.9,58.8,29.83,SSW,210,1.0,1.0,78,0.00,,,0.00,Wunderground v.1.15,2013-08-28 05:30:00,
2013-08-27 22:32:00,65.9,58.8,29.83,SSW,210,1.0,1.0,78,0.00,,,0.00,Wunderground v.1.15,2013-08-28 05:32:00,
2013-08-27 22:34:00,65.9,58.8,29.83,SSW,210,0.0,1.0,78,0.00,,,0.00,Wunderground v.1.15,2013-08-28 05:34:00,
2013-08-27 22:38:00,65.9,58.8,29.83,SSW,210,0.0,1.0,78,0.00,,,0.00,Wunderground v.1.15,2013-08-28 05:38:00,
2013-08-27 22:40:00,65.9,58.8,29.83,SSW,210,0.0,0.0,78,0.00,,,0.00,Wunderground v.1.15,2013-08-28 05:40:00,
2013-08-27 22:42:00,65.9,58.8,29.83,SSW,210,0.0,0.0,78,0.00,,,0.00,Wunderground v.1.15,2013-08-28 05:42:00,
2013-08-27 22:48:00,65.8,58.7,29.83,SSW,210,0.0,0.0,78,0.00,,,0.00,Wunderground v.1.15,2013-08-28 05:48:00,
2013-08-27 22:50:00,65.8,58.7,29.83,SSW,210,0.0,0.0,78,0.00,,,0.00,Wunderground v.1.15,2013-08-28 05:50:00,
2013-08-27 22:54:00,65.8,58.7,29.83,SSW,210,0.0,0.0,78,0.00,,,0.00,Wunderground v.1.15,2013-08-28 05:54:00,
2013-08-27 22:56:00,65.8,58.7,29.83,SSW,210,0.0,0.0,78,0.00,,,0.00,Wunderground v.1.15,2013-08-28 05:56:00,
2013-08-27 23:00:00,65.8,58.7,29.83,SSW,210,0.0,0.0,78,0.00,,,0.00,Wunderground v.1.15,2013-08-28 06:00:00,
2013-08-27 23:04:00,65.8,59.1,29.83,SSW,210,0.0,0.0,79,0.00,,,0.00,Wunderground v.1.15,2013-08-28 06:04:00,
2013-08-27 23:06:00,65.8,59.1,29.83,SSW,210,0.0,0.0,79,0.00,,,0.00,Wunderground v.1.15,2013-08-28 06:06:00,
2013-08-27 23:10:00,65.8,58.7,29.83,SSW,210,0.0,0.0,78,0.00,,,0.00,Wunderground v.1.15,2013-08-28 06:10:00,
2013-08-27 23:12:00,65.8,59.1,29.83,SSW,210,0.0,0.0,79,0.00,,,0.00,Wunderground v.1.15,2013-08-28 06:12:00,
2013-08-27 23:18:00,65.8,59.1,29.84,SSW,210,0.0,0.0,79,0.00,,,0.00,Wunderground v.1.15,2013-08-28 06:18:00,
2013-08-27 23:20:00,65.8,59.1,29.84,SSW,210,0.0,0.0,79,0.00,,,0.00,Wunderground v.1.15,2013-08-28 06:20:00,
2013-08-27 23:22:00,65.8,59.1,29.84,SSW,210,0.0,0.0,79,0.00,,,0.00,Wunderground v.1.15,2013-08-28 06:22:00,
2013-08-27 23:24:00,65.7,59.0,29.84,SSW,210,0.0,0.0,79,0.00,,,0.00,Wunderground v.1.15,2013-08-28 06:24:00,
2013-08-27 23:26:00,65.7,59.0,29.83,SSW,210,0.0,0.0,79,0.00,,,0.00,Wunderground v.1.15,2013-08-28 06:26:00,
2013-08-27 23:30:00,65.7,59.0,29.84,SSW,210,0.0,0.0,79,0.00,,,0.00,Wunderground v.1.15,2013-08-28 06:30:00,
2013-08-27 23:32:00,65.7,59.0,29.84,SSW,210,0.0,0.0,79,0.00,,,0.00,Wunderground v.1.15,2013-08-28 06:32:00,
2013-08-27 23:36:00,65.8,59.1,29.84,SSW,210,0.0,0.0,79,0.00,,,0.00,Wunderground v.1.15,2013-08-28 06:36:00,
2013-08-27 23:38:00,65.8,59.1,29.84,SSW,210,0.0,0.0,79,0.00,,,0.00,Wunderground v.1.15,2013-08-28 06:38:00,
2013-08-27 23:40:00,65.8,59.1,29.84,SSW,210,0.0,0.0,79,0.00,,,0.00,Wunderground v.1.15,2013-08-28 06:40:00,
2013-08-27 23:44:00,65.8,59.1,29.84,SSW,210,0.0,0.0,79,0.00,,,0.00,Wunderground v.1.15,2013-08-28 06:44:00,
2013-08-27 23:46:00,65.8,59.1,29.84,SSW,210,0.0,0.0,79,0.00,,,0.00,Wunderground v.1.15,2013-08-28 06:46:00,
2013-08-27 23:50:00,65.8,59.1,29.84,SSW,210,0.0,0.0,79,0.00,,,0.00,Wunderground v.1.15,2013-08-28 06:50:00,
2013-08-27 23:54:00,65.7,59.0,29.84,SSW,210,0.0,0.0,79,0.00,,,0.00,Wunderground v.1.15,2013-08-28 06:54:00,
2013-08-27 23:56:00,65.7,59.0,29.84,SSW,210,0.0,0.0,79,0.00,,,0.00,Wunderground v.1.15,2013-08-28 06:56:00,
2013-08-27 23:59:00,65.7,59.0,29.84,SSW,210,0.0,0.0,79,0.00,,,0.00,Wunderground v.1.15,2013-08-28 06:59:00,